Regional Weather Roundup
Issued by NWS Raleigh/Durham, NC

Home | Current Version | Previous Version | Text Only | Print | Product List | Glossary On
Versions: 1 2 3 4 5 6 7 8 9 10 11 12 13 14 15 16 17 18 19 20 21 22 23 24 25 26 27 28 29 30 31 32 33 34 35 36 37 38 39 40 41 42 43 44 45 46 47 48 49 50
000
ASUS42 KRAH 031610
RWRRAH
NORTH CAROLINA WEATHER ROUNDUP
NATIONAL WEATHER SERVICE RALEIGH NC
1200 PM EDT TUE MAY 03 2016

NOTE: "FAIR" INDICATES FEW OR NO CLOUDS BELOW 12,000 FEET WITH NO
SIGNIFICANT WEATHER AND/OR OBSTRUCTIONS TO VISIBILITY.

NCZ001-053-055-056-065-067-031700-
WESTERN NORTH CAROLINA

CITY           SKY/WX    TMP DP  RH WIND       PRES   REMARKS
ASHEVILLE      PTSUNNY   69  57  65 NW7       29.90S
JEFFERSON      NOT AVBL
MORGANTON      CLOUDY    69  61  74 CALM      29.90F
HICKORY        CLOUDY    71  63  75 SW5       29.85F
RUTHERFORDTON  PTSUNNY   70  64  79 CALM      29.86F
MOUNT AIRY     CLOUDY    71  63  76 CALM      29.87S
BOONE          MOSUNNY   63  51  65 NW12G18   29.91F
$$

NCZ021-022-025-041-071-084-088-031700-
CENTRAL NORTH CAROLINA

CITY           SKY/WX    TMP DP  RH WIND       PRES   REMARKS
CHARLOTTE      CLOUDY    71  65  81 SW6       29.85F
GREENSBORO     CLOUDY    69  62  78 W6        29.84F
WINSTON-SALEM  CLOUDY    69  61  75 VRB5      29.85F
RALEIGH-DURHAM CLOUDY    69  65  86 SW10      29.84S
FORT BRAGG     NOT AVBL
FAYETTEVILLE   CLOUDY    69  65  86 S5        29.84F
BURLINGTON     PTSUNNY   71  64  78 SW7       29.83F
LAURINBURG     CLOUDY    73  67  81 SW6       29.85F
$$

NCZ011-015-027-028-043-044-047-080-103-031700-
NORTHEASTERN NORTH CAROLINA

CITY           SKY/WX    TMP DP  RH WIND       PRES   REMARKS
ROCKY MT-WILSO CLOUDY    70  66  87 S6        29.83F
GREENVILLE     CLOUDY    68  66  94 S10       29.87F
WASHINGTON     LGT RAIN  66  65  94 S6        29.86S
ELIZABETH CITY CLOUDY    68  65  90 S9        29.83F
MANTEO         NOT AVBL
CAPE HATTERAS  LGT RAIN  67  65  93 W14G23    29.88F
$$

NCZ078-087-090-091-093-098-101-031700-
SOUTHEASTERN NORTH CAROLINA

CITY           SKY/WX    TMP DP  RH WIND       PRES   REMARKS
LUMBERTON      CLOUDY    73  66  78 S5        29.84F
GOLDSBORO      LGT RAIN  68  68 100 S8        29.85S
KINSTON        LGT RAIN  66  64  94 S10       29.87F
KENANSVILLE    LGT RAIN  65  64  97 CALM      29.90R
NEW BERN       LGT RAIN  67  64  90 S8        29.88F
CHERRY POINT   LGT RAIN  67  65  93 SW8       29.89F
BEAUFORT       LGT RAIN  67  64  90 SW10      29.87F
JACKSONVILLE   LGT RAIN  66  64  93 S6        29.87S
WILMINGTON     LGT RAIN  66  65  96 CALM      29.86F
$$




USA.gov is the U.S. government's official web portal to all federal, state and local government web resources and services.